Printer-friendly version

IAU Minor Planet Center

Minor Planet Center

MPEC 2005-W61 : 2005 WM3

The following Minor Planet Electronic Circular may be linked-to from your own Web pages, but must not otherwise be redistributed electronically.

A form allowing access to any MPEC is at the bottom of this page.


Read MPEC 2005-W60 Read MPEC 2005-W62


M.P.E.C. 2005-W61                                Issued 2005 Nov. 26, 04:42 UT

     The Minor Planet Electronic Circulars contain information on unusual
         minor planets and routine data on comets.  They are published
   on behalf of Commission 20 of the International Astronomical Union by the
          Minor Planet Center, Smithsonian Astrophysical Observatory,
                          Cambridge, MA 02138, U.S.A.

                  Supported in part by the Brinson Foundation
                  Supported in part by the TABASGO Foundation
             Prepared using the Tamkin Foundation Computer Network

                              MPC@CFA.HARVARD.EDU
          URL http://cfa-www.harvard.edu/iau/mpc.html  ISSN 1523-6714

                                   2005 WM3

Observations:
     K05W03M* C2005 11 25.30181 03 00 45.86 +12 39 20.1          18.3 V EW061G96
     K05W03M  C2005 11 25.30212 03 00 47.37 +12 39 23.3          18.5 V EW061G96
     K05W03M  C2005 11 25.30242 03 00 48.88 +12 39 26.1          18.4 V EW061G96
     K05W03M  C2005 11 25.30272 03 00 50.43 +12 39 29.2          18.8 V EW061G96
     K05W03M  C2005 11 25.33946 03 03 55.26 +12 45 27.9          18.6 V EW061G96
     K05W03M  C2005 11 25.34092 03 04 02.67 +12 45 42.0          18.6 V EW061G96
     K05W03M  C2005 11 25.34246 03 04 10.52 +12 45 56.9          18.4 V EW061G96
     K05W03M  C2005 11 25.34406 03 04 18.62 +12 46 11.9          18.5 V EW061G96
     K05W03M  C2005 11 25.37507 03 06 58.03 +12 51 05.7          18.8 V EW061G96
     K05W03M  C2005 11 25.37533 03 06 59.32 +12 51 08.0          18.4 V EW061G96
     K05W03M  C2005 11 25.37557 03 07 00.58 +12 51 10.2          18.3 V EW061G96
     K05W03M  C2005 11 25.40543 03 09 36.82 +12 55 45.8          18.4 V EW061G96
     K05W03M  C2005 11 25.40612 03 09 40.46 +12 55 52.1          18.0 V EW061G96
     K05W03M  C2005 11 25.40685 03 09 44.31 +12 55 58.6          18.4 V EW061G96
     K05W03M  C2005 11 25.40767 03 09 48.70 +12 56 06.2          18.1 V EW061G96
     K05W03M  C2005 11 25.91120 04 00 24.52 +14 04 20.1          18.7 V EW061198
     K05W03M  C2005 11 25.91194 04 00 29.03 +14 04 25.2          18.7 V EW061198
     K05W03M  C2005 11 25.92530 04 01 50.81 +14 05 55.7          18.7 V EW061198
     K05W03M  C2005 11 25.92543 04 01 51.59 +14 05 56.9          18.8 V EW061198
     K05W03M  C2005 11 25.92631 04 01 56.96 +14 06 02.7          18.8 V EW061198
     K05W03M  C2005 11 25.97465604 07 01.28 +14 10 30.6                 EW061J95
     K05W03M  C2005 11 25.97611204 07 10.38 +14 10 38.5                 EW061J95
     K05W03M  C2005 11 25.97778104 07 20.68 +14 10 49.6          18.7 R EW061J95
     K05W03M  C2005 11 26.16474 04 28 03.11 +14 28 33.9          19.2 R EW061734
     K05W03M  C2005 11 26.16613 04 28 11.81 +14 28 40.7          19.1 R EW061734
     K05W03M  C2005 11 26.16751 04 28 20.56 +14 28 48.8                 EW061734

Observer details:
198 Wildberg.  Observer R. Apitzsch.  0.35-m f/4.2 reflector + CCD.
734 Farpoint Observatory.  Observer B. Martin.  Measurer G. Hug.  0.7-m
    reflector + CCD.
G96 Mt. Lemmon Survey.  Observer E. J. Christensen.  Measurers E. C. Beshore,
    E. J. Christensen, G. J. Garradd, A. D. Grauer, R. E. Hill, R. A. Kowalski,
    S. M. Larson, R. H. McNaught.  1.5-m reflector + CCD.
J95 Great Shefford.  Observer P. Birtwhistle.  0.40-m f/6.0 Schmidt-Cassegrain
    + CCD.

Orbital elements:
2005 WM3
Epoch 2006 Mar. 6.0 TT = JDT 2453800.5                  MPC
M  21.49491              (2000.0)            P               Q
n   0.22685217     Peri.  189.77931     +0.33560360     -0.94181601
a   2.6626092      Node   240.61354     +0.86572111     +0.31622607
e   0.6265346      Incl.    1.23524     +0.37134511     +0.11394592
P   4.34           H   27.7           G   0.15           U   6
Residuals in seconds of arc
051125 G96  0.1-  0.0     051125 G96  0.1-  0.0     051125 198  0.1-  0.5+
051125 G96  0.6-  0.1+    051125 G96  0.2+  0.1-    051125 198  0.5-  0.4+
051125 G96  0.4-  0.1-    051125 G96  0.1-  0.1+    051125 J95  0.6-  0.2+
051125 G96  0.4+  0.0     051125 G96  0.2-  0.1+    051125 J95  0.5+  0.7-
051125 G96  0.3+  0.1-    051125 G96  0.3-  0.1-    051125 J95  0.1-  0.3+
051125 G96  0.1+  0.0     051125 G96  0.5+  0.1+    051126 734  1.7+  0.8-
051125 G96  0.4+  0.1+    051125 198  0.8+  0.3-    051126 734  0.5-  0.4-
051125 G96  0.3-  0.2-    051125 198  0.5+  0.3-    051126 734  1.0-  1.3+
051125 G96  0.8+  0.1+    051125 198  0.2+  0.1+

Ephemeris:
2005 WM3                 a,e,i = 2.66, 0.63, 1                   q = 0.9944
Date    TT    R. A. (2000) Decl.     Delta      r     Elong.  Phase     V
2005 11 26.0  04 09.58   +14 21.7    0.0100   0.997   173.4     6.5    18.2
2005 11 26.1  04 20.39   +14 30.5    0.00996  0.997   172.9     7.0    18.2
2005 11 26.2  04 31.35   +14 37.4    0.00991  0.997   171.6     8.4    18.3
2005 11 26.3  04 42.39   +14 42.5    0.00989  0.997   169.8    10.1    18.3
2005 11 26.4  04 53.47   +14 45.7    0.00989  0.997   167.7    12.2    18.4
2005 11 26.5  05 04.53   +14 46.8    0.00990  0.996   165.4    14.4    18.5
2005 11 26.6  05 15.53   +14 46.0    0.00994  0.996   163.1    16.7    18.6
2005 11 26.7  05 26.41   +14 43.3    0.0100   0.996   160.8    19.1    18.7
2005 11 26.8  05 37.14   +14 38.7    0.0101   0.996   158.4    21.4    18.8
2005 11 26.9  05 47.65   +14 32.5    0.0102   0.996   156.1    23.7    18.8
2005 11 27.0  05 57.93   +14 24.7    0.0103   0.996   153.8    26.0    18.9
2005 11 27.1  06 07.94   +14 15.5    0.0105   0.996   151.5    28.2    19.0
2005 11 27.2  06 17.64   +14 05.0    0.0106   0.996   149.3    30.4    19.1
2005 11 27.3  06 27.03   +13 53.5    0.0108   0.996   147.2    32.5    19.2
2005 11 27.4  06 36.08   +13 41.2    0.0110   0.996   145.1    34.5    19.3
2005 11 27.5  06 44.80   +13 28.1    0.0112   0.996   143.1    36.5    19.4
2005 11 27.6  06 53.16   +13 14.4    0.0114   0.996   141.2    38.4    19.5
2005 11 27.7  07 01.18   +13 00.3    0.0117   0.996   139.4    40.2    19.6
2005 11 27.8  07 08.85   +12 46.0    0.0119   0.995   137.6    41.9    19.7
2005 11 27.9  07 16.19   +12 31.5    0.0122   0.995   136.0    43.6    19.8
2005 11 28.0  07 23.19   +12 16.9    0.0124   0.995   134.3    45.1    19.9
2005 11 28.1  07 29.87   +12 02.3    0.0127   0.995   132.8    46.6    20.0
2005 11 28.2  07 36.24   +11 47.9    0.0130   0.995   131.4    48.1    20.1
2005 11 28.3  07 42.31   +11 33.6    0.0133   0.995   130.0    49.4    20.2
2005 11 28.4  07 48.09   +11 19.5    0.0136   0.995   128.7    50.7    20.2
2005 11 28.5  07 53.61   +11 05.7    0.0140   0.995   127.4    52.0    20.3
2005 11 28.6  07 58.86   +10 52.1    0.0143   0.995   126.2    53.1    20.4
2005 11 28.7  08 03.86   +10 38.9    0.0146   0.995   125.1    54.2    20.5
2005 11 28.8  08 08.63   +10 26.0    0.0150   0.995   124.0    55.3    20.6
2005 11 28.9  08 13.17   +10 13.4    0.0153   0.995   123.0    56.3    20.7
2005 11 29.0  08 17.51   +10 01.2    0.0157   0.995   122.0    57.2    20.7
2005 11 29.1  08 21.64   +09 49.3    0.0160   0.995   121.1    58.1    20.8
2005 11 29.2  08 25.59   +09 37.8    0.0164   0.995   120.2    59.0    20.9
2005 11 29.3  08 29.36   +09 26.7    0.0168   0.995   119.3    59.8    21.0
2005 11 29.4  08 32.96   +09 15.9    0.0171   0.995   118.5    60.6    21.0
2005 11 29.5  08 36.40   +09 05.4    0.0175   0.995   117.8    61.3    21.1
2005 11 29.6  08 39.69   +08 55.3    0.0179   0.995   117.1    62.0    21.2
2005 11 29.7  08 42.84   +08 45.5    0.0183   0.995   116.4    62.7    21.2
2005 11 29.8  08 45.85   +08 36.0    0.0187   0.995   115.7    63.3    21.3
2005 11 29.9  08 48.74   +08 26.9    0.0191   0.995   115.1    63.9    21.4
2005 11 30.0  08 51.51   +08 18.0    0.0195   0.994   114.5    64.5    21.4
2005 11 30.1  08 54.16   +08 09.4    0.0199   0.994   113.9    65.0    21.5
2005 11 30.2  08 56.71   +08 01.1    0.0203   0.994   113.4    65.5    21.5
2005 11 30.3  08 59.16   +07 53.1    0.0207   0.994   112.9    66.0    21.6
2005 11 30.4  09 01.51   +07 45.3    0.0211   0.994   112.4    66.5    21.7
2005 11 30.5  09 03.76   +07 37.8    0.0215   0.994   111.9    66.9    21.7
2005 11 30.6  09 05.94   +07 30.6    0.0219   0.994   111.5    67.4    21.8
2005 11 30.7  09 08.03   +07 23.5    0.0223   0.994   111.0    67.8    21.8
2005 11 30.8  09 10.04   +07 16.7    0.0227   0.994   110.6    68.1    21.9
2005 11 30.9  09 11.98   +07 10.1    0.0231   0.994   110.3    68.5    21.9
2005 12 01.0  09 13.85   +07 03.8    0.0235   0.994   109.9    68.8    22.0

Gareth V. Williams           (C) Copyright 2005 MPC           M.P.E.C. 2005-W61

Read MPEC 2005-W60 Read MPEC 2005-W62


MPEC number:

Enter an
MPEC number in one of the following forms:
  • 1997-B01 (the full form)
  • J97B01 (the packed version of the full form)
  • B01 (the abbreviated form)

Valid HTML 4.01!